Location: Miles
(41.4492°N, 81.6087°W)
Time: 23:14:02
(UTC+00:00)

Courier 1B Rocket - Pass Details

Date: 22 September 2024
Orbit: 920 x 1201 km, 28.2° (Epoch: 09 October)

Event Time Altitude Azimuth Distance (km) Brightness Sun altitude
Rises 21:47:01 0° 254° (WSW) 3,600 9.8 16.9°
Reaches altitude 10° 21:50:16 10° 238° (WSW) 2,689 9.1 16.3°
Maximum altitude 21:54:53 21° 192° (SSW) 2,084 7.2 15.5°
Drops below altitude 10° 21:59:41 10° 147° (SSE) 2,817 7.3 14.6°
Sets 22:03:12 0° 132° (SE) 3,825 7.8 14.0°
